STARLINK-22

decayed
NORAD ID: 44236 Int'l Des: 2019-029 Owner: SPXS Country: US Constellation: starlink
LEOCIRCULAR
Gruppe

Über STARLINK-22

Beschreibung wird geladen...

Höhenverlauf

Altitude vs Time

uPlot chart will show altitude changes over time

Zweizeiliger Elementsatz

1 44236U 19029B 20222.55316459 +.30875389 +12472-4 +17311-2 0 9994
2 44236 052.9807 260.6619 0004178 316.6235 043.5158 16.42066597069218
Epoch: 9. Aug. 2020 • Age: 44718 hours

Aktueller Status

Position data unavailable
Startdatum 24. Mai 2019
Alter 6.3 years
Verglühungsdatum 9. Aug. 2020
Typ internet

Technische Details

Klassifizierung Payload
Masse 227.00 kg
Trockenmasse 219.00 kg
Gesamtmasse 227.00 kg
Länge 0.20 m
Durchmesser 2.80 m
Spannweite 9.00 m
Form Box + pan
Hersteller SPXS
Bus-Typ Starlink
Phasenstatus Unknown Transfer Status
Besitzer/Staat SPXS/US

Große Konstellationen

Loading constellations...